�������C�����ː����j�^�v���󋵏��
Date,Time,Cs137(Bq/L),Cs134(Bq/L),�S��(Bq/L)
2017/01/06,00:00,0.50,0.082,ND
2017/01/06,00:10,0.49,0.089,ND
2017/01/06,00:20,0.49,0.090,ND
2017/01/06,00:30,0.51,0.083,ND
2017/01/06,00:40,0.50,0.080,ND
2017/01/06,00:50,0.63,0.048,ND
2017/01/06,01:00,0.65,0.043,ND
2017/01/06,01:10,0.54,0.062,ND
2017/01/06,01:20,0.53,0.067,ND
2017/01/06,01:30,0.52,0.068,ND
2017/01/06,01:40,0.53,0.058,ND
2017/01/06,01:50,0.51,0.065,ND
2017/01/06,02:00,0.51,0.065,ND
2017/01/06,02:10,0.50,0.070,ND
2017/01/06,02:20,0.48,0.070,ND
2017/01/06,02:30,0.47,0.066,ND
2017/01/06,02:40,0.48,0.072,ND
2017/01/06,02:50,0.48,0.073,ND
2017/01/06,03:00,0.47,0.079,ND
2017/01/06,03:10,0.49,0.073,ND
2017/01/06,03:20,0.49,0.075,9.0
2017/01/06,03:30,0.49,0.075,ND
2017/01/06,03:40,0.60,0.052,ND
2017/01/06,03:50,0.59,0.055,ND
2017/01/06,04:00,0.60,0.054,ND
2017/01/06,04:10,0.49,0.074,ND
2017/01/06,04:20,0.48,0.072,ND
2017/01/06,04:30,0.47,0.072,ND
2017/01/06,04:40,0.49,0.074,ND
2017/01/06,04:50,0.50,0.064,ND
2017/01/06,05:00,0.47,0.071,ND
2017/01/06,05:10,0.59,0.045,ND
2017/01/06,05:20,0.62,0.037,ND
2017/01/06,05:30,0.50,0.070,ND
2017/01/06,05:40,0.62,0.037,ND
2017/01/06,05:50,0.49,0.079,ND
2017/01/06,06:00,0.65,0.043,ND
2017/01/06,06:10,0.51,0.078,9.0
2017/01/06,06:20,0.50,0.085,ND
2017/01/06,06:30,0.51,0.084,10
2017/01/06,06:40,0.65,0.056,9.5
2017/01/06,06:50,0.68,0.045,11
2017/01/06,07:00,0.55,0.061,9.7
2017/01/06,07:10,0.57,0.054,ND
2017/01/06,07:20,0.69,0.031,ND
2017/01/06,07:30,0.69,0.031,ND
2017/01/06,07:40,0.54,0.066,ND
2017/01/06,07:50,0.52,0.066,ND
2017/01/06,08:00,0.51,0.079,ND
2017/01/06,08:10,0.50,0.077,ND
2017/01/06,08:20,0.50,0.071,ND
2017/01/06,08:30,0.59,0.037,ND
2017/01/06,08:40,0.49,0.074,ND
2017/01/06,08:50,0.54,0.070,ND
2017/01/06,09:00,0.53,0.062,ND
2017/01/06,09:10,0.53,0.069,ND
2017/01/06,09:20,0.55,0.069,ND
2017/01/06,09:30,0.55,0.074,ND
2017/01/06,09:40,0.55,0.069,ND
2017/01/06,09:50,0.51,0.073,12
2017/01/06,10:00,0.53,0.077,12
2017/01/06,10:10,0.52,0.080,12
2017/01/06,10:20,0.50,0.081,ND
2017/01/06,10:30,0.50,0.080,ND
2017/01/06,10:40,0.51,0.084,ND
2017/01/06,10:50,0.56,0.074,ND
2017/01/06,11:00,0.54,0.082,ND
2017/01/06,11:10,0.61,0.059,ND
2017/01/06,11:20,0.64,0.063,ND
2017/01/06,11:30,0.65,0.065,ND
2017/01/06,11:40,0.79,0.035,ND
2017/01/06,11:50,0.69,0.066,ND
2017/01/06,12:00,0.72,0.068,ND
2017/01/06,12:10,0.84,0.065,ND
2017/01/06,12:20,0.72,0.093,ND
2017/01/06,12:30,0.73,0.089,ND
2017/01/06,12:40,0.73,0.097,ND
2017/01/06,12:50,0.71,0.098,ND
2017/01/06,13:00,0.70,0.085,ND
2017/01/06,13:10,0.70,0.074,ND
2017/01/06,13:20,0.67,0.074,ND
2017/01/06,13:30,0.64,0.083,ND
2017/01/06,13:40,0.75,0.058,ND
2017/01/06,13:50,0.75,0.054,ND
2017/01/06,14:00,0.74,0.070,ND
2017/01/06,14:10,0.61,0.10,ND
2017/01/06,14:20,0.77,0.062,ND
2017/01/06,14:30,0.80,0.058,ND
2017/01/06,14:40,0.83,0.052,ND
2017/01/06,14:50,0.84,0.057,ND
2017/01/06,15:00,0.84,0.060,ND
2017/01/06,15:10,0.83,0.067,ND
2017/01/06,15:20,0.69,0.097,ND
2017/01/06,15:30,0.67,0.093,ND
2017/01/06,15:40,0.62,0.10,ND
2017/01/06,15:50,0.60,0.089,ND
2017/01/06,16:00,0.57,0.081,ND
2017/01/06,16:10,0.53,0.077,9.0
2017/01/06,16:20,0.62,0.056,ND
2017/01/06,16:30,0.60,0.058,9.0
2017/01/06,16:40,0.62,0.041,10
2017/01/06,16:50,0.60,0.051,ND
2017/01/06,17:00,0.61,0.048,ND
2017/01/06,17:10,0.51,0.069,ND
2017/01/06,17:20,0.54,0.068,ND
2017/01/06,17:30,0.55,0.062,ND
2017/01/06,17:40,0.68,0.047,ND
2017/01/06,17:50,0.59,0.065,ND
2017/01/06,18:00,0.59,0.069,ND
2017/01/06,18:10,0.69,0.056,ND
2017/01/06,18:20,0.55,0.078,ND
2017/01/06,18:30,0.53,0.077,ND
2017/01/06,18:40,0.51,0.078,ND
2017/01/06,18:50,0.49,0.069,ND
2017/01/06,19:00,0.51,0.064,ND
2017/01/06,19:10,0.53,0.058,ND
2017/01/06,19:20,0.54,0.057,ND
2017/01/06,19:30,0.57,0.052,ND
2017/01/06,19:40,0.57,0.051,ND
2017/01/06,19:50,0.56,0.055,ND
2017/01/06,20:00,0.64,0.048,ND
2017/01/06,20:10,0.64,0.047,ND
2017/01/06,20:20,0.52,0.071,ND
2017/01/06,20:30,0.50,0.083,ND
2017/01/06,20:40,0.65,0.050,ND
2017/01/06,20:50,0.65,0.059,ND
2017/01/06,21:00,0.53,0.070,ND
2017/01/06,21:10,0.53,0.068,ND
2017/01/06,21:20,0.53,0.063,ND
2017/01/06,21:30,0.53,0.057,ND
2017/01/06,21:40,0.51,0.066,ND
2017/01/06,21:50,0.53,0.056,ND
2017/01/06,22:00,0.54,0.067,ND
2017/01/06,22:10,0.53,0.072,ND
2017/01/06,22:20,0.54,0.075,ND
2017/01/06,22:30,0.59,0.072,ND
2017/01/06,22:40,0.58,0.073,ND
2017/01/06,22:50,0.59,0.073,ND
2017/01/06,23:00,0.58,0.071,ND
2017/01/06,23:10,0.58,0.073,ND
2017/01/06,23:20,0.56,0.074,ND
2017/01/06,23:30,0.52,0.090,ND
2017/01/06,23:40,0.54,0.088,ND
2017/01/06,23:50,0.54,0.084,ND
